sat.trackr.live / text

‹ back to catalog

UNKNOWN

NORAD 87782

UNKNOWN UNKNOWN UNKNOWN

§ Identity

Operator
Country
Launch date
Launch site
Launch vehicle
Mass (kg)
RCS (m²)

External: N2YO · Heavens-Above

§ Orbital elements

Epoch: 2026-09-18T05:46:44.842656Z

Period
110.60 min
Inclination
102.4096°
Eccentricity
0.0075280
Mean motion
13.01951471 rev/d
Perigee alt
1,197.0 km
Apogee alt
1,311.9 km
Semi-major
7,632.6 km
B*
7.5631e-3
RAAN
176.2476°
Arg perigee
10.3860°
Mean anomaly
349.8772°
Rev number
60,434

§ Raw data

UNKNOWN1 87782U          26261.24079679  .00002317  00000+0  75631-2 0  99992 87782 102.4096 176.2476 0075280  10.3860 349.8772 13.01951471604348

JSON: /api/v1/satellites/87782 · /tle

For live sub-satellite position, see the globe view (requires WebGL).

§ Visibility from observer

Set your observer location to see the next 7 days of passes ≥ 10°. The values pass through the URL so the page stays shareable.

No JS? Fill the form by hand. The geolocation button needs JavaScript.